Weather Roundup
Issued by NWS Chicago, IL

Home | Current Version | Previous Version | Text Only | Print | Product List | Glossary Off
Versions: 1 2 3 4 5 6 7 8 9 10 11 12 13 14 15 16 17 18 19 20 21 22 23 24 25 26 27 28 29 30 31 32 33 34 35 36 37 38 39 40 41 42 43 44 45 46 47 48 49 50

000
NZUS59 KLOT 011700
HRRLOT

CHICAGO AREA WEATHER ROUNDUP
NATIONAL WEATHER SERVICE CHICAGO/ROMEOVILLE IL
1200 PM CDT WED OCT 01 2014

NOTE: "FAIR" INDICATES FEW OR NO CLOUDS BELOW 12,000 FEET WITH NO
SIGNIFICANT WEATHER AND/OR OBSTRUCTIONS TO VISIBILITY.

* THESE STATIONS ARE NOT UNDER NWS QUALITY CONTROL. THEY ALSO MAY NOT
  REPORT WEATHER SUCH AS PRECIPITATION OR FOG.

ILZ005-006-012>014-019>023-011800-
NORTHEAST ILLINOIS

CITY           SKY/WX    TMP DP  RH WIND       PRES   REMARKS
OHARE          MOSUNNY   63  48  58 SE8       29.99F
MIDWAY         MOSUNNY   65  51  60 SE9       30.00F
AURORA         SUNNY     66  50  56 SE13G20   29.98F
LANSING*       SUNNY     64  52  65 SE6       30.01F
WAUKEGAN       NOT AVBL
DUPAGE AIRPORT SUNNY     65  49  56 VRB3      29.98F
WHEELING       SUNNY     65  48  54 S10       30.01F
NORTHERLY IS     N/A     62  51  67 E9          N/A
$$

WIZ051-052-058>065-066-070>072-011800-
SOUTHEAST WISCONSIN

CITY           SKY/WX    TMP DP  RH WIND       PRES   REMARKS
MILWAUKEE      MOSUNNY   61  49  64 SE16      30.00F
KENOSHA*       MOSUNNY   62  51  67 SE14      30.00F
RACINE*        PTSUNNY   60  49  66 S13       30.02F
WAUKESHA       SUNNY     61  48  63 SE7       30.00F
$$

INZ001>003-010>013-019-020-011800-
NORTHWEST INDIANA

CITY           SKY/WX    TMP DP  RH WIND       PRES   REMARKS
GARY*          SUNNY     64  50  59 SE9       30.02F
MICHIGAN CITY* NOT AVBL
RENSSELAER*    NOT AVBL
$$

LMZ740>746-011800-
SOUTHERN LAKE MICHIGAN

STATION/POSITION TIME  SKY/WX   TEMP WIND        PRES    VSBY
                                AIR  DIR/SP/G
                 (UTC)          (F)  (DEG/KT/KT) (MB)    (MI)
HARRISON CRIB    1600            56  140/ 14/ 18   N/A
BURNHAM HARBOR   1700            62  100/  9/ 12   N/A
CALUMET HARBOR   1600            61  160/  8/ 10 1015.1F
BURNS HARBOR     NOT AVBL
MICHIGAN CITY    1600            59  100/  7/ 11   N/A
$$

ABBREVIATIONS USED IN REMARKS
   TC - TEMPERATURE IN CELSIUS
  WCI - WIND CHILL INDEX
   HX - HEAT INDEX
  VSB - VISIBILITY
$$


USA.gov is the U.S. government's official web portal to all federal, state and local government web resources and services.